Regional Weather Roundup
Issued by NWS

Home | Current Version | Previous Version | Text Only | Print | Product List | Glossary On
Versions: 1 2 3 4 5 6 7 8 9 10 11 12 13 14 15 16 17 18 19 20 21 22 23 24 25 26 27 28 29 30 31 32 33 34 35 36 37 38 39 40 41 42 43 44 45 46 47 48 49 50
000
ASCA42 TJSJ 210010
RWRPR
PUERTO RICO/U.S. VIRGIN ISLANDS HOURLY WEATHER ROUNDUP
NATIONAL WEATHER SERVICE SAN JUAN PR
800 PM AST SUN AUG 20 2017

PRZ001>002-007>008-010-210100-
PUERTO RICO

CITY           SKY/WX    TMP DP  RH WIND       PRES   REMARKS
SAN JUAN LMM   PTCLDY    81  77  89 SE6       30.01R
AGUADILLA      MOCLDY    75  73  94 SE3       30.01R
CEIBA          LGT RAIN  81  79  94 CALM      30.03R
$$

VIZ001>002-210100-
U.S. VIRGIN ISLANDS

CITY           SKY/WX    TMP DP  RH WIND       PRES   REMARKS
CHARLOTTE AMA  CLEAR     81  79  94 E8        29.99R
CHRISTIANSTED  CLEAR     81  77  89 NE8       30.00R
$$

HOURLY WEATHER ROUNDUP FOR THE NEWS MEDIA

CITY           SKY/WX    TMP DP  RH WIND       PRES   REMARKS
ORLANDO        CLOUDY    81  77  88 SE5       30.06R
NEW YORK       PTCLDY    81  58  45 NW13      30.10R
NEWARK         PTCLDY    80  58  46 NW7       30.09R
CHICAGO        LGT RAIN  82  68  62 S8        30.01R
HARTFORD       CLEAR     72  59  63 CALM      30.03R
BOSTON         PTCLDY    79  54  41 NW8       30.03R
DALLAS         MOSUNNY   95  68  41 SE15      29.93F HX  99
PHILADELPHIA   PTCLDY    81  59  47 N7        30.11S
LOS ANGELES    MOSUNNY   71  62  73 SW16      29.88S
WASHINGTON DC  PTCLDY    78  66  66 E5        30.13R


USA.gov is the U.S. government's official web portal to all federal, state and local government web resources and services.